Location: Ash Swamp
(41.5170°N, 74.6157°W)
Time: 17:19:49
(UTC+00:00)

USA 245 - Pass Details

Date: 14 July 2020
Orbit: 271 x 1010 km, 97.9° (Epoch: 01 August)

Event Time Altitude Azimuth Distance (km) Brightness Sun altitude
Exits shadow 01:57:29 20° 156° (SSE) 1,338 4.7 -13.5°
Maximum altitude 02:00:13 72° 75° (ENE) 671 3.6 -13.8°
Drops below altitude 10° 02:05:12 10° 351° (N) 2,284 7.3 -14.5°
Sets 02:07:47 0° 350° (N) 3,336 8.4 -14.8°
